Location: Kapla
(46.2483°N, 15.0094°E)
Time: 15:34:00
(UTC+00:00)

Cosmos 2333 Rocket - Pass Details

Date: 03 March 2021
Orbit: 837 x 864 km, 70.8° (Epoch: 14 April)

Event Time Altitude Azimuth Distance (km) Brightness Sun altitude
Rises 20:32:17 0° 246° (WSW) 3,399 5.7 -37.5°
Reaches altitude 10° 20:35:11 10° 259° (W) 2,472 5.0 -37.9°
Maximum altitude 20:39:45 24° 313° (NW) 1,682 4.2 -38.5°
Drops below altitude 10° 20:44:22 10° 7° (N) 2,497 4.9 -39.2°
Sets 20:47:20 0° 21° (NNE) 3,442 5.6 -39.5°
